TimePST,TemperatureF,Dew PointF,Humidity,Sea Level PressureIn,VisibilityMPH,Wind Direction,Wind SpeedMPH,Gust SpeedMPH,PrecipitationIn,Events,Conditions,WindDirDegrees,DateUTC
12:56 AM,39.9,39.0,97,30.13,10.0,Calm,Calm,-,N/A,,Overcast,0,2012-12-05 08:56:00
1:56 AM,39.0,37.9,96,30.12,10.0,Calm,Calm,-,N/A,,Overcast,0,2012-12-05 09:56:00
2:56 AM,39.9,37.9,93,30.11,10.0,Calm,Calm,-,N/A,,Overcast,0,2012-12-05 10:56:00
3:56 AM,39.0,37.9,96,30.12,10.0,SSW,4.6,-,0.00,Rain,Light Rain,200,2012-12-05 11:56:00
4:56 AM,39.9,37.9,93,30.14,7.0,Calm,Calm,-,0.02,Rain,Light Rain,0,2012-12-05 12:56:00
6:56 AM,41.0,39.9,96,30.14,10.0,West,5.8,-,0.08,Rain,Light Rain,280,2012-12-05 14:56:00
7:29 AM,42.8,41.0,93,30.14,10.0,Calm,Calm,-,0.01,Rain,Light Rain,0,2012-12-05 15:29:00
7:56 AM,42.1,39.9,92,30.15,4.0,Calm,Calm,-,0.02,Rain,Light Rain,0,2012-12-05 15:56:00
8:41 AM,42.8,41.0,93,30.16,6.0,SW,5.8,-,0.04,Rain,Light Rain,230,2012-12-05 16:41:00
8:56 AM,43.0,42.1,97,30.17,9.0,SW,5.8,-,0.05,Rain,Light Rain,230,2012-12-05 16:56:00
9:56 AM,46.0,43.0,89,30.16,10.0,SW,8.1,-,0.00,,Overcast,220,2012-12-05 17:56:00
10:08 AM,46.4,42.8,87,30.17,10.0,SSW,4.6,-,N/A,,Overcast,210,2012-12-05 18:08:00
10:54 AM,46.4,42.8,87,30.16,10.0,WSW,9.2,-,N/A,,Overcast,240,2012-12-05 18:54:00
10:56 AM,46.0,43.0,89,30.15,10.0,WSW,9.2,-,N/A,,Overcast,240,2012-12-05 18:56:00
11:56 AM,48.0,43.0,83,30.13,10.0,SW,15.0,-,N/A,,Scattered Clouds,230,2012-12-05 19:56:00
12:56 PM,48.0,43.0,83,30.12,10.0,WSW,12.7,-,N/A,,Overcast,240,2012-12-05 20:56:00
1:56 PM,48.0,43.0,83,30.12,10.0,Variable,3.5,-,N/A,,Mostly Cloudy,0,2012-12-05 21:56:00
2:56 PM,48.9,43.0,80,30.10,10.0,SSW,5.8,-,N/A,,Overcast,210,2012-12-05 22:56:00
3:07 PM,48.2,42.8,82,30.12,10.0,SSW,4.6,-,N/A,,Overcast,210,2012-12-05 23:07:00
3:56 PM,46.9,42.1,83,30.11,10.0,SSW,5.8,-,N/A,,Overcast,200,2012-12-05 23:56:00
4:56 PM,45.0,41.0,86,30.11,10.0,Calm,Calm,-,N/A,,Overcast,0,2012-12-06 00:56:00
5:23 PM,44.6,42.8,93,30.13,10.0,Calm,Calm,-,N/A,,Overcast,0,2012-12-06 01:23:00
5:56 PM,44.1,42.1,93,30.12,3.0,Calm,Calm,-,0.02,Rain,Rain,0,2012-12-06 01:56:00
6:56 PM,41.0,39.9,96,30.11,10.0,Calm,Calm,-,0.01,,Mostly Cloudy,0,2012-12-06 02:56:00
7:56 PM,39.0,37.0,93,30.12,8.0,Calm,Calm,-,N/A,,Partly Cloudy,0,2012-12-06 03:56:00
8:56 PM,37.9,37.0,97,30.12,10.0,Calm,Calm,-,N/A,,Mostly Cloudy,0,2012-12-06 04:56:00
9:31 PM,37.4,37.4,100,30.12,2.5,Calm,Calm,-,N/A,,Overcast,0,2012-12-06 05:31:00
9:38 PM,37.4,35.6,93,30.12,7.0,Calm,Calm,-,N/A,,Mostly Cloudy,0,2012-12-06 05:38:00
9:56 PM,37.0,37.0,100,30.12,10.0,Calm,Calm,-,N/A,,Mostly Cloudy,0,2012-12-06 05:56:00
10:45 PM,35.6,35.6,100,30.11,1.2,Calm,Calm,-,N/A,,Scattered Clouds,0,2012-12-06 06:45:00
10:47 PM,35.6,35.6,100,30.11,0.8,Calm,Calm,-,N/A,,Mostly Cloudy,0,2012-12-06 06:47:00
10:56 PM,37.0,35.1,93,30.11,2.0,Calm,Calm,-,N/A,,Scattered Clouds,0,2012-12-06 06:56:00
11:05 PM,33.8,33.8,100,30.11,0.8,Calm,Calm,-,N/A,,Scattered Clouds,0,2012-12-06 07:05:00
11:13 PM,35.6,33.8,93,30.11,0.8,Calm,Calm,-,N/A,,Mostly Cloudy,0,2012-12-06 07:13:00
11:19 PM,35.6,35.6,100,30.11,0.2,Calm,Calm,-,N/A,Fog,Fog,0,2012-12-06 07:19:00
11:43 PM,33.8,33.8,100,30.11,0.5,Calm,Calm,-,N/A,Fog,Fog,0,2012-12-06 07:43:00
11:56 PM,35.1,34.0,96,30.10,0.2,Calm,Calm,-,N/A,Fog,Fog,0,2012-12-06 07:56:00